sat.trackr.live / text

‹ back to catalog

STARLINK-37646

NORAD 69650 · 2026-143B

PAYLOAD ACTIVE UNKNOWN

§ Identity

Operator
Country
US
Launch date
2026-06-21
Launch site
AFWTR
Launch vehicle
Mass (kg)
RCS (m²)

Purposes: comms

External: N2YO · Heavens-Above · Gunter

§ Orbital elements

Epoch: 2026-09-20T01:20:20.981760Z

Period
93.91 min
Inclination
97.2846°
Eccentricity
0.0001182
Mean motion
15.33455740 rev/d
Perigee alt
464.7 km
Apogee alt
466.3 km
Semi-major
6,843.6 km
B*
5.6242e-4
RAAN
306.2397°
Arg perigee
113.8169°
Mean anomaly
246.3197°
Rev number
1,514

§ Raw data

STARLINK-376461 69650U 26143B   26263.05579840  .00018132  00000+0  56242-3 0  99952 69650  97.2846 306.2397 0001182 113.8169 246.3197 15.33455740 15145

JSON: /api/v1/satellites/69650 · /tle

For live sub-satellite position, see the globe view (requires WebGL).

§ Visibility from observer

Set your observer location to see the next 7 days of passes ≥ 10°. The values pass through the URL so the page stays shareable.

No JS? Fill the form by hand. The geolocation button needs JavaScript.